Goleta, CA

6:20 AM PST on February 12, 2016 (GMT -0800)
Santa Barbara Municipal

Weather History for KSBA - September, 2013

Change the Weather History Date:

Monday, September 9, 2013

  Actual Average Record
Temperature  
Mean Temperature 65 °F 66 °F  
Max Temperature 70 °F 75 °F 95 °F (1984)
Min Temperature 59 °F 57 °F 47 °F (1953)
Degree Days  
Heating Degree Days 0 1  
Month to date heating degree days 0 9  
Since 1 July heating degree days 30 60  
Cooling Degree Days 0 2  
Month to date cooling degree days 53 18  
Year to date cooling degree days 251 145  
Growing Degree Days 14 (Base 50)    
Moisture  
Dew Point 58 °F    
Average Humidity 83    
Maximum Humidity 93    
Minimum Humidity 73    
Precipitation  
Precipitation 0.00 in 0.00 in 0.29 in (1982)
Month to date precipitation 0.00 0.02  
Year to date precipitation 3.42 12.22  
Since 1 July precipitation 0.07  
Sea Level Pressure  
Sea Level Pressure 29.78 in    
Wind  
Wind Speed 6 mph (SE)    
Max Wind Speed 20 mph    
Max Gust Speed 93 mph    
Visibility 7 miles    
Events Fog    
T = Trace of Precipitation, MM = Missing Value Source: NWS Daily Summary

Daily Weather History Graph

Daily Weather History Graph

Search for Another Location

Airport or City:

Trip Planner

Search our weather history database for the weather conditions in past years. The results will help you decide how hot, cold, wet, or windy it might be!

Date:

Astronomy

Sep. 09, 2013 Rise Set
Actual Time 6:38 AM PDT 7:14 PM PDT
Civil Twilight 6:13 AM PDT 7:39 PM PDT
Nautical Twilight 5:43 AM PDT 8:09 PM PDT
Astronomical Twilight 5:12 AM PDT 8:39 PM PDT
Moon 10:52 AM PDT (9/9) 9:48 PM PDT (9/9)
Length of Visible Light 13h 26m
Length of Day
12h 35m
Waxing Crescent, 20% of the Moon is Illuminated
Sep 9
Waxing Crescent
Sep 12
First Quarter
Sep 19
Full
Sep 26
Last Quarter
Oct 4
New

Hourly Weather History & Observations

Time (PDT) Temp. Dew Point Humidity Pressure Visibility Wind Dir Wind Speed Gust Speed Precip Events Conditions
12:53 AM 62.1 °F 57.9 °F 86% 29.80 in 10.0 mi East 8.1 mph - N/A   Overcast
1:53 AM 62.1 °F 57.9 °F 86% 29.80 in 9.0 mi SSE 19.6 mph 93.2 mph N/A   Overcast
2:53 AM 61.0 °F 57.9 °F 90% 29.79 in 8.0 mi SE 5.8 mph - N/A   Overcast
3:37 AM 60.8 °F 57.2 °F 88% 29.77 in 7.0 mi SSE 4.6 mph - N/A   Overcast
3:53 AM 60.1 °F 57.9 °F 93% 29.77 in 6.0 mi ESE 3.5 mph - N/A   Overcast
4:53 AM 59.0 °F 57.0 °F 93% 29.77 in 5.0 mi Calm Calm - N/A   Overcast
5:06 AM 59.0 °F 57.2 °F 94% 29.77 in 2.5 mi Calm Calm - N/A   Overcast
5:20 AM 59.0 °F 57.2 °F 94% 29.77 in 1.0 mi ESE 3.5 mph - N/A   Overcast
5:29 AM 59.0 °F 57.2 °F 94% 29.77 in 3.0 mi ESE 3.5 mph - N/A   Overcast
5:46 AM 59.0 °F 57.2 °F 94% 29.78 in 1.8 mi ESE 4.6 mph - N/A   Overcast
5:53 AM 59.0 °F 57.0 °F 93% 29.78 in 2.5 mi ESE 4.6 mph - N/A   Overcast
6:14 AM 59.0 °F 57.2 °F 94% 29.78 in 0.5 mi ESE 4.6 mph - N/A Fog Fog
6:53 AM 60.1 °F 57.0 °F 90% 29.79 in 1.0 mi East 5.8 mph - N/A   Overcast
7:53 AM 60.1 °F 57.0 °F 90% 29.80 in 1.0 mi Calm Calm - N/A   Overcast
7:56 AM 60.8 °F 57.2 °F 88% 29.80 in 3.0 mi Calm Calm - N/A   Overcast
8:14 AM 60.8 °F 57.2 °F 88% 29.80 in 3.0 mi Calm Calm - N/A   Overcast
8:53 AM 62.1 °F 57.0 °F 84% 29.81 in 3.0 mi Calm Calm - N/A   Haze
9:53 AM 64.9 °F 57.9 °F 78% 29.82 in 10.0 mi South 4.6 mph - N/A   Mostly Cloudy
10:53 AM 66.0 °F 57.9 °F 75% 29.82 in 10.0 mi South 5.8 mph - N/A   Mostly Cloudy
11:53 AM 66.0 °F 57.9 °F 75% 29.82 in 10.0 mi SSW 8.1 mph - N/A   Scattered Clouds
12:53 PM 66.0 °F 57.0 °F 73% 29.81 in 10.0 mi South 6.9 mph - N/A   Partly Cloudy
1:53 PM 66.0 °F 57.0 °F 73% 29.79 in 10.0 mi Variable 6.9 mph - N/A   Clear
2:53 PM 66.9 °F 59.0 °F 76% 29.78 in 10.0 mi SSE 6.9 mph - N/A   Partly Cloudy
3:53 PM 68.0 °F 59.0 °F 73% 29.77 in 10.0 mi WSW 12.7 mph - N/A   Clear
4:53 PM 66.0 °F 57.9 °F 75% 29.76 in 10.0 mi West 12.7 mph - N/A   Scattered Clouds
5:46 PM 66.2 °F 57.2 °F 73% 29.75 in 10.0 mi North - - N/A   Clear
5:53 PM 66.0 °F 57.9 °F 75% 29.75 in 10.0 mi North - - N/A   Clear
6:53 PM 64.0 °F 59.0 °F 84% 29.75 in 10.0 mi West 6.9 mph - N/A   Clear
7:53 PM 63.0 °F 59.0 °F 87% 29.75 in 10.0 mi West 3.5 mph - N/A   Clear
8:53 PM 63.0 °F 59.0 °F 87% 29.77 in 10.0 mi East 4.6 mph - N/A   Clear
9:14 PM 64.4 °F 60.8 °F 88% 29.77 in 10.0 mi SE 3.5 mph - N/A   Scattered Clouds
9:32 PM 64.4 °F 59.0 °F 83% 29.78 in 10.0 mi ESE 5.8 mph - N/A   Mostly Cloudy
9:53 PM 64.0 °F 59.0 °F 84% 29.78 in 10.0 mi East 8.1 mph - N/A   Overcast
10:53 PM 63.0 °F 59.0 °F 87% 29.81 in 10.0 mi ESE 8.1 mph - N/A   Overcast
11:53 PM 62.1 °F 59.0 °F 90% 29.81 in 7.0 mi SSE 5.8 mph - N/A   Overcast